STARLINK-11490 [DTC] (62219 NORAD) Tracking and Keplerian Element Data

This shows tracking and keplerian element data for the satellite.

Feedback or suggestion? Click here.




ElementValue
Catalog62219
NameSTARLINK-11490 [DTC]
Epoch Orbit1081
Epoch Day35.07553438
Epoch Year2025
RAAN266.3675
Inclination53.1586
Eccentricity0.00012
Argument of Perigee57.8695
Mean Anonmoly302.2439
Mean Motion15.69741252
Decay Rate-7.925E-05
L11 62219U 24231B 25035.07553438 -.00007925 00000+0 -60530-4 0 9994
L22 62219 53.1586 266.3675 0001200 57.8695 302.2439 15.69741252 10813



Live tracking and technical data element details for STARLINK-11490 [DTC] (NORAD 62219). STARLINK-11490 [DTC] can be tracked NOW for your location showing map with azimuth and elevation plus other details from your city location.







IsCatalogInMostPopularTable: catalog: 62219, numindb: 17
Update: records affected: 1



GetName: 62219 STARLINK-11490 [DTC]

Hit Count: updated at: Sat, 24 May 2025 16:36:39 GMT